Hourly Data Report for July 15, 2017

CAPE RACE (AUT)
NEWFOUNDLAND

46°39'36.000" N
53°04'35.000" W
26.50 m
8401000
71800
WRA

Download Data

Hourly Data (July 2017)
Hourly Data Report for July 15, 2017
TIME
LST
Temp Definition
°C
Dew Point Definition
°C
Rel Hum Definition
%
Precip. Amount Definition
mm

Wind Dir Definition
10's deg

Wind Spd Definition
km/h
Visibility Definition
km
Stn Press Definition
kPa
Hmdx Definition


Wind Chill Definition


Weather Definition


00:30 8.7 8.6 100 0.0 24 21   101.61     LegendNANA
01:30 9.0 8.9 100 0.0 25 22   101.58     LegendNANA
02:30 8.7 8.7 100 0.0 26 22   101.56     LegendNANA
03:30 8.0 8.0 100 0.0 28 14   101.54     LegendNANA
04:30 9.0 9.0 100 0.0 28 21   101.53     LegendNANA
05:30 7.6 7.6 100 0.0 24 13   101.58     LegendNANA
06:30 11.2 LegendMM 100 0.0 25 13   101.58     LegendNANA
07:30 8.8 8.1 95 0.0 22 11   101.59     LegendNANA
08:30 8.8 8.5 98 0.0 21 16   101.56     LegendNANA
09:30 9.4 8.7 95 0.0 20 17   101.51     LegendNANA
10:30 11.0 9.3 89 0.0 21 18   101.49     LegendNANA
11:30 13.1 8.6 74 0.0 21 16   101.44     LegendNANA
12:30 12.1 9.2 82 0.0 21 19   101.42     LegendNANA
13:30 12.6 9.7 83 0.0 21 12   101.37     LegendNANA
14:30 13.1 10.6 85 0.0 20 11   101.33     LegendNANA
15:30 13.6 10.6 82 0.0 18 8   101.24     LegendNANA
16:30 12.3 10.4 88 0.0 18 10   101.25     LegendNANA
17:30 10.3 9.4 94 0.0 17 9   101.22     LegendNANA
18:30 9.7 9.0 95 0.0 12 5   101.16     LegendNANA
19:30 9.6 9.1 97 0.0 6 4   101.13     LegendNANA
20:30 9.7 9.5 98 0.0 4 9   101.11     LegendNANA
21:30 10.0 9.9 99 0.0 3 10   101.10     LegendNANA
22:30 10.1 9.9 99 0.0 4 11   101.05     LegendNANA
23:30 10.4 10.2 98 0.0 3 13   100.99     LegendNANA

Notes on Data Quality.

Legend

  • E = Estimated
  • M = Missing
  • NA = Not Available*
  • [empty] = Indicates an unobserved value
Date modified: